SCP
0 0 0 0 0 0 0 0 0 0 0 0 0 0 0 0 0 0 0 0 0 0 0 0 0 -0 -0 0 0 0 0 0 0 0 0 0 0 0 0 0 0 0 0
0 0 0 0 0 0 0 0 0 0 0 0 0 0 0 0 0 0 0 0 0 0 0 0 0 -0 0 0 0 0 0 0 0 0 0 0 0 0 0 0 0 0 0
0 0 0 0 0 0 0 0 0 0 0 0 0 0 0 0 0 0 0 0 0 0 0 0 0 -0 0 0 0 0 0 0 0 0 0 0 0 0 0 0 0 0 0
0 0 0 0 0 0 0 0 0 0 0 0 0 0 0 0 0 0 0 0 0 0 0 0 0 -0 0 -0 0 0 0 0 0 0 0 0 0 0 0 0 0 0 0
0 0 0 0 0 0 0 0 0 0 0 0 0 0 0 0 0 0 0 0 0 0 0 0 0 0 -0 0 0 0 0 0 0 0 0 0 0 0 0 0 0 0 0
0 0 0 0 0 0 0 0 0 0 0 0 0 0 0 0 0 0 0 0 0 0 0 0 0 0 -0 -0 -0 -0 -0 0 0 0 0 0 0 0 0 0 0 0 0
0 0 0 0 0 0 0 0 0 0 0 0 0 0 0 0 0 0 0 0 0 0 0 0 0 0 0 0 0 -0 -0 -0 -0 0 0 0 0 0 0 0 0 0 0
0 0 0 0 0 0 0 0 0 0 0 0 0 0 0 0 0 0 0 0 0 0 0 0 0 0 0 -0 0 0 -0 -0 0 -0 -0 0 0 0 0 0 0 0 0
0 0 0 0 0 0 0 0 0 0 0 0 0 0 0 0 0 0 0 0 0 0 0 0 0 0 0 -0 -0 -0 0 0 0 0 0 -0 -0 0 0 0 0 -0 0
0 0 0 0 0 0 0 0 0 0 0 0 0 0 0 0 0 0 0 0 0 0 0 0 0 0 0 0 0 -0 -0 -0 -0 0 0 0 -0 0 -0 0 0 0 0
0 0 0 0 0 0 0 0 0 0 0 0 0 0 0 0 0 -0 0 0 0 0 0 0 0 0 0 0 0 -0 0 0 0 0 0 0 0 0 0 0 0 0 0
0 0 0 0 0 0 0 0 0 0 0 0 0 0 0 0 0 0 0 0 0 0 0 0 0 0 -0 -0 -0 0 0 0 0 0 0 -0 -0 0 0 0 0 0 0
0 0 0 0 0 0 0 0 0 0 0 0 0 0 0 0 0 0 0 0 0 0 0 0 0 0 0 0 -0 -0 0 0 0 0 0 -0 -0 -0 0 0 0 0 0
0 0 0 0 0 0 0 0 0 0 0 0 0 0 0 0 0 0 0 0 0 0 0 0 0 0 -0 -0 -0 -0 -0 0 0 0 0 -0 0 -0 -0 -0 -0 0 0
0 0 0 0 0 0 0 0 0 0 0 0 0 0 0 0 0 0 0 0 0 0 0 0 0 0 0 -0 -0 -0 -0 0 -0 0 -0 -0 0 0 0 -0 -0 -0 -0
0 0 0 0 0 0 0 0 0 0 0 0 0 0 0 0 0 0 0 0 0 0 0 0 0 0 0 -0 0 0 0 0 0 0 0 -0 -0 0 -0 -0 0 0 -0
0 0 0 0 0 0 0 0 0 0 0 0 0 0 0 0 -0 0 0 0 0 0 0 0 0 0 0 0 0 0 0 0 0 0 0 0 0 0 0 -0 -0 -0 0
0 0 0 0 0 0 0 0 0 0 0 0 0 0 0 0 0 0 0 0 0 0 0 0 0 0 0 0 0 0 0 0 0 0 0 0 0 0 0 0 0 -0 -0
0 0 0 0 0 0 0 0 0 0 0 0 0 0 0 0 0 0 0 0 0 0 0 0 0 0 0 0 0 0 0 0 0 0 0 0 0 0 0 0 0 0 -0
0 0 0 0 0 0 0 0 0 0 0 0 0 0 0 0 0 0 0 0 0 0 0 0 0 0 0 0 0 0 0 0 0 0 0 0 0 0 0 0 0 0 0
0 0 0 -0 0 0 0 0 0 0 0 0 0 0 0 0 0 0 0 0 0 0 0 0 0 0 0 0 0 0 0 0 0 0 0 0 0 0 0 0 0 0 0
0 0 0 0 0 0 0 0 0 0 0 0 0 0 0 0 0 0 0 0 0 0 0 0 0 0 0 0 0 0 0 0 0 0 0 0 0 0 0 0 0 0 0
0 0 0 0 0 0 0 0 0 0 0 0 0 0 0 0 0 0 0 0 0 0 0 0 0 0 0 0 0 0 0 0 0 0 0 0 0 0 0 0 0 0 0
0 0 0 0 0 0 0 0 0 0 0 0 0 0 0 0 0 0 0 0 0 0 0 0 0 0 0 0 0 0 0 0 0 0 0 0 0 0 0 0 0 0 0
0 0 0 0 0 0 0 0 0 0 0 0 0 0 0 0 0 0 0 0 0 0 0 0 0 0 0 0 0 0 -0 -0 0 0 0 0 0 0 0 0 0 0 0
0 0 0 0 0 0 0 0 0 0 0 0 0 0 0 0 0 0 0 0 0 0 0 0 0 0 0 0 0 -0 -0 -0 0 0 0 0 0 0 0 0 0 0 0
Wind_Speed_500mb
3 7 10 10 16 17 20 25 26 29 33 39 36 42 39 42 45 47 33 33 34 36 31 28 33 35 33 31 22 10 9 6 9 5 1 3 3 4 4 4 9 4 3
4 7 11 13 12 14 18 22 24 30 31 34 36 36 42 47 41 44 42 36 32 36 34 30 35 37 35 30 27 22 13 12 8 9 7 7 6 5 3 4 9 10 10
4 9 10 13 14 12 15 23 24 27 28 30 31 36 35 46 46 40 37 32 30 32 34 28 33 36 40 37 29 29 13 14 10 11 14 12 7 8 8 11 13 12 15
2 5 7 9 11 15 17 23 23 25 26 29 32 36 32 43 58 44 38 33 36 32 32 28 30 33 40 43 34 32 17 6 11 12 18 14 12 10 9 14 20 21 23
4 4 5 7 11 14 20 18 22 24 28 28 29 32 40 46 56 47 36 33 30 34 32 27 25 30 29 39 36 34 24 6 13 17 20 16 12 10 7 11 14 18 20
6 3 3 10 5 15 15 17 22 29 32 29 25 28 39 51 57 44 35 32 31 33 33 28 24 26 26 27 36 31 27 16 13 17 20 16 11 5 9 12 16 14 16
1 1 2 4 5 15 15 20 27 30 31 31 31 29 34 43 57 42 37 35 37 31 33 27 26 24 17 22 26 28 27 19 16 12 11 8 9 10 17 15 12 12 13
3 3 6 9 9 12 12 20 24 27 29 32 29 28 29 33 46 52 36 37 40 32 34 35 19 21 18 17 19 23 20 21 18 13 8 9 12 15 13 8 8 7 5
8 6 5 10 12 12 15 22 29 29 30 30 26 23 28 36 45 50 35 38 38 34 32 37 31 22 21 15 13 13 21 20 21 16 10 9 4 1 7 3 7 8 9
9 11 11 10 14 14 17 26 29 32 31 31 25 23 32 33 40 47 41 25 34 28 28 31 33 22 16 13 11 11 8 14 17 13 9 8 7 3 3 6 2 9 9
12 15 13 14 14 13 25 24 33 31 30 25 22 23 27 34 42 45 38 27 28 35 35 32 34 30 18 11 10 9 10 8 10 9 5 3 9 6 6 3 2 2 9
17 15 13 12 13 17 21 22 30 27 33 27 22 21 24 33 38 40 32 29 31 29 30 30 32 33 30 20 15 9 6 9 10 7 4 2 7 11 6 3 5 7 5
17 12 13 15 15 12 17 17 21 21 21 28 22 29 29 25 27 34 28 27 28 25 25 27 20 25 32 31 20 6 10 9 8 7 6 9 4 3 5 6 9 11 11
12 7 10 9 11 13 9 13 18 22 22 23 25 25 26 28 30 39 28 25 21 16 14 20 24 25 19 34 30 15 5 6 8 7 8 8 8 7 5 7 9 9 10
7 4 3 6 8 6 6 4 15 16 20 22 22 24 28 28 32 32 32 31 26 22 19 19 21 23 22 25 34 26 17 11 10 8 1 7 4 3 3 2 2 4 4
3 2 4 8 10 11 11 14 16 15 25 21 22 20 22 26 28 27 30 26 19 17 26 23 25 21 20 25 28 30 24 17 12 12 7 4 4 6 3 8 3 1 6
4 5 6 5 11 7 10 12 14 18 22 24 26 23 28 36 29 33 27 22 21 18 20 20 22 24 25 18 23 25 28 20 17 14 12 6 7 8 5 2 6 7 5
8 5 8 12 7 13 8 10 19 20 22 25 21 21 25 30 25 27 31 22 22 23 19 23 24 24 25 24 17 18 24 21 19 23 14 10 6 4 7 7 9 6 6
7 5 9 10 9 8 17 13 15 17 21 24 18 21 16 33 19 26 27 28 23 23 27 28 23 23 25 20 21 18 21 18 14 16 19 12 9 11 13 13 12 12 11
4 5 4 3 7 8 11 15 20 21 20 22 21 9 18 21 16 21 25 27 21 22 23 29 31 30 18 21 25 24 21 21 16 17 22 20 8 16 16 17 19 19 16
12 12 6 6 11 11 12 17 18 23 21 29 9 15 21 13 20 23 21 21 19 25 28 30 30 25 28 25 29 29 23 14 18 13 17 19 21 16 20 19 17 17 21
11 12 12 10 14 17 14 17 22 19 22 27 14 17 23 20 28 20 18 23 27 26 29 31 31 22 24 26 27 31 32 27 26 18 15 18 24 19 18 18 9 10 17
9 10 8 15 13 19 23 18 24 16 22 20 12 14 15 21 25 25 22 29 30 26 30 30 23 24 27 25 25 35 44 25 25 27 29 22 20 19 22 22 24 25 19
15 4 9 11 13 17 13 15 16 20 14 9 10 12 16 23 22 25 23 24 28 31 31 21 24 23 27 24 30 42 42 42 30 23 24 22 20 19 22 19 19 20 21
15 11 8 13 9 12 11 13 16 17 16 17 17 16 18 19 19 24 25 30 30 28 25 25 25 22 26 33 34 38 47 43 32 25 23 22 20 20 21 21 17 15 11
4 5 8 2 6 10 12 14 15 14 16 16 15 17 17 15 19 21 25 28 26 32 29 27 23 22 25 33 38 46 41 34 29 24 22 20 19 17 29 24 20 18 15
Wind_Direction_500mb
43 65 43 21 39 17 10 5 359 357 359 358 356 359 359 358 354 354 354 351 0 358 360 5 1 6 357 1 354 308 306 289 278 304 73 69 52 358 356 335 335 19 268
35 70 22 15 31 25 13 1 354 8 3 3 3 7 10 360 349 357 2 4 359 358 2 3 4 3 5 351 353 349 267 234 261 236 173 135 107 70 47 44 45 57 62
48 52 21 16 25 32 5 11 8 12 13 4 0 359 2 354 359 359 353 352 358 360 4 7 4 2 9 3 4 356 332 209 228 226 184 174 132 105 102 94 87 86 89
135 79 41 13 23 28 11 17 7 2 4 354 0 2 1 356 357 2 355 360 9 12 7 15 6 9 11 16 16 11 20 167 205 210 181 164 154 131 118 109 101 88 85
122 56 26 34 22 0 4 0 3 352 347 350 9 353 5 359 359 358 5 7 356 8 15 20 9 14 12 25 23 25 32 65 169 170 166 149 133 134 141 132 106 92 73
5 84 9 30 0 351 347 339 341 339 348 357 -0 353 359 13 10 5 1 11 8 12 11 21 17 10 12 30 34 41 47 64 118 142 133 124 129 136 113 106 102 99 93
34 189 242 317 314 330 341 334 338 335 346 354 4 352 1 10 14 4 6 14 10 8 11 14 22 21 27 29 39 29 45 60 74 100 131 158 106 131 120 106 93 68 97
251 220 231 273 306 328 344 324 330 339 342 350 358 355 352 360 7 8 3 6 5 4 11 6 12 6 32 31 43 33 47 44 49 66 79 117 122 151 135 62 99 108 114
244 245 243 272 304 309 312 323 340 335 338 353 354 346 352 4 8 9 6 9 10 7 6 11 21 22 29 38 37 34 46 51 40 49 69 92 107 78 151 306 208 183 225
208 266 249 266 291 306 309 325 341 341 340 344 355 353 357 357 357 7 6 15 3 12 3 16 11 12 26 35 29 37 42 52 41 41 39 51 66 152 208 302 312 232 241
228 231 265 258 272 299 309 326 336 341 351 358 4 8 1 2 2 5 7 7 6 9 19 12 9 9 12 5 3 13 24 36 39 37 44 45 67 103 120 220 219 186 215
219 243 253 265 291 294 308 322 337 347 350 9 15 3 2 357 3 358 359 4 7 3 5 19 17 14 15 9 7 10 9 11 26 41 13 314 230 261 287 241 230 263 221
239 263 275 282 281 301 322 329 332 340 353 355 354 354 352 359 353 349 350 360 1 359 353 350 359 21 13 6 8 1 42 43 30 27 1 350 332 303 42 45 19 50 34
232 254 286 296 302 297 288 331 333 343 349 347 347 339 331 342 331 355 357 2 348 342 353 15 10 2 10 10 4 10 13 11 1 359 31 25 37 63 45 98 77 33 7
223 235 340 304 329 360 339 348 342 335 326 331 341 331 336 339 341 346 353 352 349 359 359 11 23 23 16 4 3 5 6 1 346 16 81 32 32 50 11 335 304 353 339
197 346 291 261 277 320 314 331 334 336 337 339 349 354 352 341 351 354 357 9 4 3 15 12 1 1 11 360 357 6 4 358 1 8 341 251 282 181 262 307 277 246 341
233 280 263 22 0 359 355 330 337 333 334 336 327 335 359 16 12 6 8 10 10 22 2 357 1 0 351 350 345 354 2 2 358 345 345 327 242 241 244 26 337 272 257
316 3 196 314 280 332 346 358 342 334 332 325 320 330 354 3 6 10 8 7 10 356 354 356 348 346 341 343 326 341 332 346 3 0 334 325 329 300 279 266 285 311 237
318 309 298 311 284 318 337 333 324 322 331 342 331 348 357 354 357 6 359 353 349 355 347 348 350 338 343 341 344 337 334 330 353 357 360 330 334 277 283 293 286 296 280
255 207 29 357 302 308 320 324 342 2 343 342 331 15 344 356 348 329 329 341 345 343 341 340 334 336 348 343 336 329 320 329 336 346 335 326 295 306 305 274 291 274 264
218 265 276 291 302 298 303 326 330 322 329 337 307 308 360 31 351 341 343 342 346 341 341 336 331 340 338 335 330 331 317 298 316 305 320 316 297 312 309 287 257 289 290
222 238 276 290 288 284 283 298 316 336 331 324 319 356 15 8 345 345 342 342 334 334 337 332 331 341 344 337 322 322 322 306 296 281 282 312 306 293 293 287 301 262 273
261 252 253 271 308 301 292 284 332 319 326 339 1 8 354 330 333 332 335 338 337 342 334 334 333 344 340 342 325 313 325 319 304 288 292 288 292 303 299 286 267 271 273
239 275 241 260 300 311 315 336 324 325 338 4 10 358 353 339 346 341 352 335 338 339 339 345 349 342 339 324 308 308 322 329 316 299 294 297 303 297 296 286 275 282 260
277 238 239 284 307 313 314 349 351 350 356 1 1 358 0 345 340 342 338 336 348 0 357 357 352 336 324 312 310 310 314 319 314 303 298 294 298 304 313 309 275 261 318
262 237 268 331 28 2 358 356 358 356 349 352 346 352 357 349 346 342 337 346 358 351 346 344 335 337 320 310 315 319 322 321 319 305 299 297 290 299 315 305 294 243 281
Wind_Speed_850mb
3 7 10 10 16 17 20 25 26 29 33 39 36 42 39 42 45 47 33 33 34 36 31 28 33 35 33 31 22 10 9 6 9 5 1 3 3 4 4 4 9 4 3
4 7 11 13 12 14 18 22 24 30 31 34 36 36 42 47 41 44 42 36 32 36 34 30 35 37 35 30 27 22 13 12 8 9 7 7 6 5 3 4 9 10 10
4 9 10 13 14 12 15 23 24 27 28 30 31 36 35 46 46 40 37 32 30 32 34 28 33 36 40 37 29 29 13 14 10 11 14 12 7 8 8 11 13 12 15
2 5 7 9 11 15 17 23 23 25 26 29 32 36 32 43 58 44 38 33 36 32 32 28 30 33 40 43 34 32 17 6 11 12 18 14 12 10 9 14 20 21 23
4 4 5 7 11 14 20 18 22 24 28 28 29 32 40 46 56 47 36 33 30 34 32 27 25 30 29 39 36 34 24 6 13 17 20 16 12 10 7 11 14 18 20
6 3 3 10 5 15 15 17 22 29 32 29 25 28 39 51 57 44 35 32 31 33 33 28 24 26 26 27 36 31 27 16 13 17 20 16 11 5 9 12 16 14 16
1 1 2 4 5 15 15 20 27 30 31 31 31 29 34 43 57 42 37 35 37 31 33 27 26 24 17 22 26 28 27 19 16 12 11 8 9 10 17 15 12 12 13
3 3 6 9 9 12 12 20 24 27 29 32 29 28 29 33 46 52 36 37 40 32 34 35 19 21 18 17 19 23 20 21 18 13 8 9 12 15 13 8 8 7 5
8 6 5 10 12 12 15 22 29 29 30 30 26 23 28 36 45 50 35 38 38 34 32 37 31 22 21 15 13 13 21 20 21 16 10 9 4 1 7 3 7 8 9
9 11 11 10 14 14 17 26 29 32 31 31 25 23 32 33 40 47 41 25 34 28 28 31 33 22 16 13 11 11 8 14 17 13 9 8 7 3 3 6 2 9 9
12 15 13 14 14 13 25 24 33 31 30 25 22 23 27 34 42 45 38 27 28 35 35 32 34 30 18 11 10 9 10 8 10 9 5 3 9 6 6 3 2 2 9
17 15 13 12 13 17 21 22 30 27 33 27 22 21 24 33 38 40 32 29 31 29 30 30 32 33 30 20 15 9 6 9 10 7 4 2 7 11 6 3 5 7 5
17 12 13 15 15 12 17 17 21 21 21 28 22 29 29 25 27 34 28 27 28 25 25 27 20 25 32 31 20 6 10 9 8 7 6 9 4 3 5 6 9 11 11
12 7 10 9 11 13 9 13 18 22 22 23 25 25 26 28 30 39 28 25 21 16 14 20 24 25 19 34 30 15 5 6 8 7 8 8 8 7 5 7 9 9 10
7 4 3 6 8 6 6 4 15 16 20 22 22 24 28 28 32 32 32 31 26 22 19 19 21 23 22 25 34 26 17 11 10 8 1 7 4 3 3 2 2 4 4
3 2 4 8 10 11 11 14 16 15 25 21 22 20 22 26 28 27 30 26 19 17 26 23 25 21 20 25 28 30 24 17 12 12 7 4 4 6 3 8 3 1 6
4 5 6 5 11 7 10 12 14 18 22 24 26 23 28 36 29 33 27 22 21 18 20 20 22 24 25 18 23 25 28 20 17 14 12 6 7 8 5 2 6 7 5
8 5 8 12 7 13 8 10 19 20 22 25 21 21 25 30 25 27 31 22 22 23 19 23 24 24 25 24 17 18 24 21 19 23 14 10 6 4 7 7 9 6 6
7 5 9 10 9 8 17 13 15 17 21 24 18 21 16 33 19 26 27 28 23 23 27 28 23 23 25 20 21 18 21 18 14 16 19 12 9 11 13 13 12 12 11
4 5 4 3 7 8 11 15 20 21 20 22 21 9 18 21 16 21 25 27 21 22 23 29 31 30 18 21 25 24 21 21 16 17 22 20 8 16 16 17 19 19 16
12 12 6 6 11 11 12 17 18 23 21 29 9 15 21 13 20 23 21 21 19 25 28 30 30 25 28 25 29 29 23 14 18 13 17 19 21 16 20 19 17 17 21
11 12 12 10 14 17 14 17 22 19 22 27 14 17 23 20 28 20 18 23 27 26 29 31 31 22 24 26 27 31 32 27 26 18 15 18 24 19 18 18 9 10 17
9 10 8 15 13 19 23 18 24 16 22 20 12 14 15 21 25 25 22 29 30 26 30 30 23 24 27 25 25 35 44 25 25 27 29 22 20 19 22 22 24 25 19
15 4 9 11 13 17 13 15 16 20 14 9 10 12 16 23 22 25 23 24 28 31 31 21 24 23 27 24 30 42 42 42 30 23 24 22 20 19 22 19 19 20 21
15 11 8 13 9 12 11 13 16 17 16 17 17 16 18 19 19 24 25 30 30 28 25 25 25 22 26 33 34 38 47 43 32 25 23 22 20 20 21 21 17 15 11
4 5 8 2 6 10 12 14 15 14 16 16 15 17 17 15 19 21 25 28 26 32 29 27 23 22 25 33 38 46 41 34 29 24 22 20 19 17 29 24 20 18 15
Wind_Direction_850mb
43 65 43 21 39 17 10 5 359 357 359 358 356 359 359 358 354 354 354 351 0 358 360 5 1 6 357 1 354 308 306 289 278 304 73 69 52 358 356 335 335 19 268
35 70 22 15 31 25 13 1 354 8 3 3 3 7 10 360 349 357 2 4 359 358 2 3 4 3 5 351 353 349 267 234 261 236 173 135 107 70 47 44 45 57 62
48 52 21 16 25 32 5 11 8 12 13 4 0 359 2 354 359 359 353 352 358 360 4 7 4 2 9 3 4 356 332 209 228 226 184 174 132 105 102 94 87 86 89
135 79 41 13 23 28 11 17 7 2 4 354 0 2 1 356 357 2 355 360 9 12 7 15 6 9 11 16 16 11 20 167 205 210 181 164 154 131 118 109 101 88 85
122 56 26 34 22 0 4 0 3 352 347 350 9 353 5 359 359 358 5 7 356 8 15 20 9 14 12 25 23 25 32 65 169 170 166 149 133 134 141 132 106 92 73
5 84 9 30 0 351 347 339 341 339 348 357 -0 353 359 13 10 5 1 11 8 12 11 21 17 10 12 30 34 41 47 64 118 142 133 124 129 136 113 106 102 99 93
34 189 242 317 314 330 341 334 338 335 346 354 4 352 1 10 14 4 6 14 10 8 11 14 22 21 27 29 39 29 45 60 74 100 131 158 106 131 120 106 93 68 97
251 220 231 273 306 328 344 324 330 339 342 350 358 355 352 360 7 8 3 6 5 4 11 6 12 6 32 31 43 33 47 44 49 66 79 117 122 151 135 62 99 108 114
244 245 243 272 304 309 312 323 340 335 338 353 354 346 352 4 8 9 6 9 10 7 6 11 21 22 29 38 37 34 46 51 40 49 69 92 107 78 151 306 208 183 225
208 266 249 266 291 306 309 325 341 341 340 344 355 353 357 357 357 7 6 15 3 12 3 16 11 12 26 35 29 37 42 52 41 41 39 51 66 152 208 302 312 232 241
228 231 265 258 272 299 309 326 336 341 351 358 4 8 1 2 2 5 7 7 6 9 19 12 9 9 12 5 3 13 24 36 39 37 44 45 67 103 120 220 219 186 215
219 243 253 265 291 294 308 322 337 347 350 9 15 3 2 357 3 358 359 4 7 3 5 19 17 14 15 9 7 10 9 11 26 41 13 314 230 261 287 241 230 263 221
239 263 275 282 281 301 322 329 332 340 353 355 354 354 352 359 353 349 350 360 1 359 353 350 359 21 13 6 8 1 42 43 30 27 1 350 332 303 42 45 19 50 34
232 254 286 296 302 297 288 331 333 343 349 347 347 339 331 342 331 355 357 2 348 342 353 15 10 2 10 10 4 10 13 11 1 359 31 25 37 63 45 98 77 33 7
223 235 340 304 329 360 339 348 342 335 326 331 341 331 336 339 341 346 353 352 349 359 359 11 23 23 16 4 3 5 6 1 346 16 81 32 32 50 11 335 304 353 339
197 346 291 261 277 320 314 331 334 336 337 339 349 354 352 341 351 354 357 9 4 3 15 12 1 1 11 360 357 6 4 358 1 8 341 251 282 181 262 307 277 246 341
233 280 263 22 0 359 355 330 337 333 334 336 327 335 359 16 12 6 8 10 10 22 2 357 1 0 351 350 345 354 2 2 358 345 345 327 242 241 244 26 337 272 257
316 3 196 314 280 332 346 358 342 334 332 325 320 330 354 3 6 10 8 7 10 356 354 356 348 346 341 343 326 341 332 346 3 0 334 325 329 300 279 266 285 311 237
318 309 298 311 284 318 337 333 324 322 331 342 331 348 357 354 357 6 359 353 349 355 347 348 350 338 343 341 344 337 334 330 353 357 360 330 334 277 283 293 286 296 280
255 207 29 357 302 308 320 324 342 2 343 342 331 15 344 356 348 329 329 341 345 343 341 340 334 336 348 343 336 329 320 329 336 346 335 326 295 306 305 274 291 274 264
218 265 276 291 302 298 303 326 330 322 329 337 307 308 360 31 351 341 343 342 346 341 341 336 331 340 338 335 330 331 317 298 316 305 320 316 297 312 309 287 257 289 290
222 238 276 290 288 284 283 298 316 336 331 324 319 356 15 8 345 345 342 342 334 334 337 332 331 341 344 337 322 322 322 306 296 281 282 312 306 293 293 287 301 262 273
261 252 253 271 308 301 292 284 332 319 326 339 1 8 354 330 333 332 335 338 337 342 334 334 333 344 340 342 325 313 325 319 304 288 292 288 292 303 299 286 267 271 273
239 275 241 260 300 311 315 336 324 325 338 4 10 358 353 339 346 341 352 335 338 339 339 345 349 342 339 324 308 308 322 329 316 299 294 297 303 297 296 286 275 282 260
277 238 239 284 307 313 314 349 351 350 356 1 1 358 0 345 340 342 338 336 348 0 357 357 352 336 324 312 310 310 314 319 314 303 298 294 298 304 313 309 275 261 318
262 237 268 331 28 2 358 356 358 356 349 352 346 352 357 349 346 342 337 346 358 351 346 344 335 337 320 310 315 319 322 321 319 305 299 297 290 299 315 305 294 243 281